SCP
1 1 1 0 0 0 0 0 0 0 0 0 0 0 0 0 0 0 0 0 0 0 0 0 1 1 1 1 1 1 1 0 0 0 0 0 0 0 0 0 0 1 1 1 1 0 1 1 0
1 1 0 0 0 0 0 0 0 0 0 0 0 0 0 0 0 0 0 0 0 0 0 1 1 1 1 1 1 1 0 0 0 0 0 0 0 0 0 0 0 1 1 1 1 0 1 1 1
1 0 0 0 0 0 0 0 0 0 0 0 0 0 0 0 0 0 0 0 0 0 0 1 1 1 1 1 1 0 0 0 0 0 0 0 0 1 0 0 0 0 1 1 1 1 1 1 1
0 0 0 0 0 0 0 0 0 0 0 0 0 0 0 0 0 0 0 0 0 0 0 1 1 1 1 1 0 0 0 0 0 0 0 0 0 1 1 0 1 1 1 1 1 1 1 1 1
0 0 0 0 0 0 0 0 0 0 0 0 0 0 0 0 0 0 0 0 0 0 0 1 1 1 1 1 1 0 0 0 0 0 0 0 0 1 1 1 1 1 1 1 1 1 1 1 1
0 0 0 0 0 0 0 0 0 0 0 0 0 0 0 0 0 0 0 0 0 0 0 0 1 1 1 1 1 0 0 0 0 0 0 0 0 1 1 1 1 1 1 1 1 1 1 0 0
0 0 0 0 0 0 0 0 0 0 0 0 0 0 0 0 0 0 0 0 0 0 0 0 0 0 1 1 1 1 1 0 0 0 0 0 0 1 1 1 1 1 1 1 1 1 1 0 0
0 0 0 0 0 0 0 0 0 0 0 0 0 0 0 0 0 0 0 0 0 0 0 0 0 0 0 1 1 1 1 0 0 0 0 0 0 0 1 1 1 1 1 1 1 1 0 0 0
0 0 0 0 0 0 0 0 0 0 0 0 0 0 0 0 0 0 0 0 0 0 0 0 0 0 0 1 1 1 1 0 0 0 0 0 0 0 0 1 1 0 0 1 1 1 0 0 0
0 0 0 0 0 0 0 0 0 0 0 0 0 0 0 0 0 0 0 0 0 0 0 0 0 0 0 0 1 1 1 0 0 0 0 0 0 0 0 0 1 1 1 1 1 1 0 0 0
0 0 0 0 0 0 0 0 0 0 0 0 0 0 0 0 0 0 0 0 0 1 1 0 0 0 0 0 0 0 0 0 0 0 0 0 0 0 0 0 1 1 1 1 1 1 0 0 0
0 0 0 0 0 0 0 0 0 0 0 0 0 0 0 0 0 0 0 0 0 1 1 0 0 0 0 0 0 0 0 0 0 0 0 0 0 0 0 1 1 1 1 1 1 1 1 1 1
0 0 0 0 0 0 0 0 0 0 0 0 0 0 0 0 0 0 0 0 0 0 0 0 0 0 0 0 0 0 0 0 0 0 0 0 0 0 0 0 0 0 0 0 0 0 1 1 1
0 0 0 0 0 0 0 0 0 0 0 0 0 0 0 0 0 0 0 0 0 0 0 0 0 0 0 0 0 0 0 0 0 0 0 0 0 0 0 0 0 0 0 0 0 0 0 1 1
0 0 0 0 0 0 0 0 0 0 0 0 0 0 0 0 0 0 0 0 0 0 0 0 0 0 0 0 0 0 0 0 0 0 0 0 0 0 0 0 0 0 0 0 0 0 0 0 1
0 0 0 0 0 0 0 0 0 0 0 0 0 0 0 0 0 0 0 0 0 0 0 0 0 0 0 0 0 0 0 0 0 0 0 0 0 0 0 0 0 0 0 0 0 0 0 0 0
0 0 0 0 0 0 0 0 0 0 0 0 0 0 0 0 0 0 0 0 0 0 1 1 1 0 0 0 0 0 0 0 0 0 0 0 0 0 0 0 0 0 0 0 0 0 0 0 0
0 0 0 0 0 0 0 0 0 0 0 0 0 0 0 0 0 0 0 0 0 0 1 1 1 1 1 1 0 0 0 0 0 0 0 0 0 0 0 0 0 0 0 0 0 0 0 0 0
0 0 0 0 0 0 0 0 0 0 0 0 0 0 0 0 0 0 0 0 0 0 0 0 1 1 1 1 1 0 0 0 0 0 0 0 0 0 0 0 0 0 0 0 0 0 0 0 0
0 0 0 0 0 0 0 0 0 0 0 0 0 0 0 0 0 0 0 0 0 0 0 0 0 0 1 1 1 0 0 0 0 0 0 0 0 0 0 0 0 0 0 0 0 1 1 0 0
0 0 0 0 0 0 0 0 0 0 0 0 0 0 0 0 0 0 0 1 0 0 0 0 0 0 0 0 0 0 0 0 0 0 0 0 0 0 0 0 0 0 0 0 0 1 1 0 0
0 0 0 0 0 0 0 0 0 0 0 0 0 0 0 0 0 0 0 1 0 0 0 0 0 0 0 0 0 0 0 0 0 0 0 0 0 0 0 0 0 0 0 0 0 0 0 0 0
0 0 0 0 0 0 0 0 0 0 0 0 0 0 0 0 0 0 0 0 0 0 0 0 0 0 0 0 0 0 0 0 0 0 0 0 0 0 0 0 0 0 0 0 0 0 0 0 0
0 0 0 0 0 0 0 0 0 0 0 0 0 0 0 0 0 0 0 0 1 0 0 0 0 0 0 0 0 0 0 0 0 0 0 0 0 0 0 0 0 0 0 0 0 0 0 0 0
0 0 0 0 0 0 0 0 0 0 0 0 0 0 0 0 0 0 0 1 1 1 0 0 0 0 0 0 0 0 0 0 0 0 0 0 0 0 0 0 0 0 0 0 0 0 0 0 0
0 0 0 0 0 0 0 0 0 0 0 0 0 0 0 0 0 0 0 1 1 1 1 0 0 1 1 0 0 0 0 0 0 0 0 0 0 0 0 0 0 0 0 0 0 0 0 0 0
0 0 0 0 0 0 0 0 0 0 0 0 0 0 0 0 0 0 0 1 1 1 1 1 1 1 1 1 0 0 0 0 0 0 0 0 0 0 0 0 0 0 0 0 0 0 0 0 0
0 0 0 0 0 0 0 0 0 0 0 0 0 0 0 0 0 0 0 0 1 1 1 1 1 1 1 1 1 0 0 0 0 0 0 0 0 0 0 0 0 0 0 0 0 0 0 0 0
0 0 0 0 0 0 0 0 0 0 0 0 0 0 0 0 0 0 0 0 0 1 1 0 0 0 1 1 1 1 1 0 0 0 0 0 0 0 0 0 0 0 0 0 0 0 0 0 0
0 0 0 0 0 0 0 0 0 0 0 0 0 0 0 0 0 0 0 0 0 0 0 0 0 0 0 1 1 1 1 0 0 0 0 0 0 0 0 0 0 0 0 0 0 0 0 0 0
Wind_Speed
2 1 2 3 3 3 7 6 6 5 6 7 7 6 7 8 7 7 5 4 4 4 5 5 6 6 7 7 8 8 8 9 9 9 9 9 9 9 8 8 8 8 9 9 9 8 8 8 8
1 1 3 2 0 5 7 6 8 8 6 5 6 6 7 9 7 7 5 5 4 5 5 6 6 6 7 7 8 9 9 9 9 10 10 10 9 9 9 8 9 8 8 8 8 8 8 8 8
1 3 2 0 4 6 7 6 8 7 5 3 4 6 6 7 6 6 5 5 5 5 5 6 5 6 7 7 8 9 9 9 9 9 9 9 9 9 8 9 9 8 9 8 8 8 8 8 8
2 2 1 3 10 9 7 7 5 5 6 5 4 7 8 7 5 7 6 5 5 5 5 7 6 7 8 8 8 8 9 9 9 9 8 9 9 9 9 8 8 8 8 8 8 8 9 8 8
2 1 4 7 9 8 7 6 4 5 5 5 5 8 9 7 7 8 6 5 5 6 6 7 7 7 8 8 8 8 8 8 8 8 8 9 9 9 8 8 8 8 8 8 8 8 9 9 9
1 1 4 7 9 7 7 5 5 7 7 6 7 8 8 7 6 6 6 5 5 5 5 7 8 7 7 7 8 8 7 8 8 9 8 8 8 8 9 9 9 8 8 8 8 9 9 9 10
1 2 6 8 8 7 6 4 5 6 6 6 4 6 7 7 6 5 5 5 4 4 5 5 6 7 7 7 8 8 7 7 8 8 8 8 8 8 8 8 9 9 9 9 9 9 9 10 10
2 2 7 6 6 7 5 5 4 5 6 4 2 5 7 7 6 5 5 4 4 4 5 5 5 5 5 7 8 7 7 7 7 7 7 6 6 7 7 8 9 8 9 9 9 9 10 10 10
2 2 6 5 5 6 5 5 5 4 6 5 5 6 7 9 7 6 5 4 4 4 4 4 5 5 5 5 6 5 6 5 4 5 5 2 4 5 5 10 9 9 9 9 9 9 9 8 9
1 4 7 5 4 5 5 4 5 5 6 7 8 7 8 8 7 6 4 4 4 4 4 4 4 5 5 4 4 3 4 4 3 4 4 4 5 5 5 9 9 9 9 9 8 7 5 3 5
4 6 6 5 5 5 5 5 4 4 5 6 7 9 8 7 6 4 4 3 3 3 3 4 4 4 4 3 3 2 3 3 4 4 4 3 4 3 4 4 5 5 4 5 5 4 4 5 5
6 6 5 5 5 4 5 5 5 4 5 5 6 8 8 7 5 4 3 3 3 3 3 3 3 3 4 3 3 2 2 2 3 4 5 4 3 3 4 3 4 3 3 4 4 3 6 6 6
6 5 5 5 5 5 5 5 5 5 4 5 7 7 6 5 4 3 3 3 3 3 3 4 3 3 4 4 2 2 3 3 4 3 3 4 3 3 4 4 3 4 4 4 4 4 6 6 6
6 5 5 5 5 5 5 5 4 4 5 7 7 6 6 5 3 3 3 3 3 3 4 4 3 3 3 3 3 3 3 3 3 3 3 4 3 3 3 4 3 4 4 4 4 5 5 5 5
5 5 5 4 4 3 3 4 4 4 6 7 6 6 5 4 3 3 3 2 3 3 4 4 3 3 3 3 4 3 2 2 3 2 3 3 3 3 3 3 4 3 4 4 4 6 4 4 5
3 3 4 4 2 2 3 3 5 4 6 6 5 5 4 3 2 2 2 2 3 3 4 4 3 3 3 3 3 2 3 3 2 2 2 3 4 4 3 3 3 3 3 3 3 3 4 4 4
3 2 3 4 2 2 1 2 4 4 5 5 5 5 4 4 3 2 2 2 2 3 3 4 3 3 3 3 3 2 3 2 2 2 2 2 3 3 3 3 3 3 3 3 3 4 3 4 4
2 2 2 2 2 2 1 1 3 4 4 4 4 4 4 4 3 3 3 3 3 3 4 4 4 3 4 2 2 2 2 2 2 2 2 3 2 3 3 2 3 3 3 3 3 4 3 3 3
0 1 1 2 1 1 0 1 1 2 4 4 4 3 3 3 3 3 3 4 4 4 4 4 4 4 3 2 1 1 2 1 2 2 2 2 2 2 2 2 3 2 2 3 4 3 4 3 2
2 1 1 2 2 1 1 1 2 2 2 3 3 4 4 3 4 5 4 5 4 4 4 4 3 3 3 2 1 1 2 1 2 2 2 2 2 2 2 2 2 2 2 3 3 2 1 2 0
1 1 1 0 1 2 2 2 3 4 2 2 2 3 3 3 4 5 5 5 5 4 4 3 3 4 3 3 2 2 2 2 2 2 2 2 2 2 2 2 2 2 2 2 2 2 1 0 1
1 1 2 2 3 0 3 1 3 2 2 1 2 3 3 4 4 5 5 5 5 5 4 4 4 3 3 3 2 2 1 1 2 1 2 3 2 2 2 2 2 2 2 2 1 1 0 1 1
1 1 1 2 3 2 1 3 3 2 2 1 1 3 4 4 4 5 5 5 5 5 4 4 4 3 3 2 2 1 1 1 2 2 3 3 3 2 2 2 1 2 2 2 1 1 0 1 1
2 3 3 4 4 2 1 3 2 2 3 2 0 2 4 5 4 4 4 4 5 5 4 4 4 3 3 3 3 2 2 2 2 2 3 2 3 2 2 2 2 1 1 1 1 1 1 0 1
3 4 4 4 3 1 2 2 2 4 3 3 1 1 3 5 5 5 5 5 5 5 5 5 5 4 4 4 4 3 3 3 3 2 3 2 2 2 2 2 2 2 2 1 1 1 1 1 1
2 4 3 2 1 1 2 2 3 3 2 1 0 2 3 4 4 4 4 4 5 5 5 5 5 5 5 4 4 3 3 2 1 2 2 2 1 2 2 2 2 3 2 2 1 1 1 1 1
3 2 4 4 2 3 1 1 3 2 2 2 2 3 3 4 4 4 4 4 5 5 5 5 6 5 5 5 4 3 3 2 2 2 2 1 2 2 2 3 3 3 2 2 2 1 1 1 1
3 1 3 4 3 3 1 1 1 2 2 1 2 2 2 2 3 3 3 4 4 5 5 5 5 5 5 5 4 3 3 3 2 2 3 3 3 3 3 3 3 3 3 2 2 1 1 1 2
3 3 3 3 4 4 2 1 3 2 1 0 1 2 2 2 3 3 2 3 4 4 5 5 5 5 5 5 5 5 4 3 3 3 3 3 3 3 3 3 3 3 3 3 2 1 1 1 1
3 3 4 4 3 4 4 0 4 1 1 1 1 2 2 2 2 3 2 3 3 4 4 4 4 4 5 5 5 5 4 4 4 3 3 3 3 3 3 3 3 2 2 2 2 2 1 1 0
Wind_Direction
194 207 243 242 213 97 72 66 62 69 67 59 55 59 63 49 37 67 76 66 64 72 76 85 68 68 67 67 67 71 72 72 71 70 73 74 74 72 77 81 80 79 80 78 74 73 74 76 78
289 246 240 248 230 98 78 69 68 59 79 89 68 65 72 69 61 82 88 77 79 77 69 68 69 71 70 72 72 71 73 73 70 69 70 69 67 65 71 78 80 79 79 79 75 71 70 74 77
189 257 273 46 61 64 82 74 79 81 74 68 79 60 55 70 76 85 86 97 91 80 74 76 67 69 73 73 72 71 72 74 71 69 69 68 66 62 64 71 77 80 79 75 72 71 70 71 75
240 219 198 89 82 66 74 82 88 100 80 59 85 85 78 64 77 88 98 97 92 87 84 85 71 72 75 74 71 72 74 73 70 70 69 69 65 61 62 67 74 78 81 77 72 73 72 71 72
248 254 115 96 83 80 78 78 75 80 77 69 80 94 93 83 90 100 103 94 90 84 81 87 76 70 71 73 72 71 73 75 71 68 67 66 63 60 62 69 75 76 79 81 78 74 74 72 69
236 214 112 96 93 93 86 78 85 83 90 88 92 99 94 104 107 106 106 93 85 86 86 92 95 73 64 66 71 70 70 74 74 69 66 61 59 58 61 66 69 73 75 76 77 75 74 72 69
35 78 89 99 104 97 85 70 68 85 87 78 91 102 112 118 109 119 114 103 94 94 94 85 93 101 98 78 67 67 67 72 74 71 66 61 61 60 59 65 68 71 74 75 76 76 75 74 71
356 110 106 97 100 90 89 87 69 62 80 84 91 106 120 126 128 133 124 117 105 101 99 94 88 82 85 95 80 67 65 68 72 71 67 69 85 80 69 75 75 75 75 75 78 79 78 76 73
281 119 98 89 92 100 110 105 91 87 100 95 80 79 101 128 139 140 133 125 114 109 104 99 92 85 75 73 85 87 88 82 103 103 94 100 77 78 88 71 76 80 81 79 78 79 80 89 86
40 86 80 73 84 109 111 103 109 116 104 107 108 103 122 142 148 144 136 124 118 117 112 104 93 91 86 75 79 69 76 79 70 64 69 61 65 66 75 93 84 86 89 91 81 86 105 103 94
71 81 91 93 95 111 112 106 107 115 97 102 120 131 141 147 147 143 129 110 100 109 109 109 98 93 83 84 70 63 73 79 76 68 74 70 74 89 87 100 109 104 105 91 100 112 80 75 71
93 81 86 96 106 112 111 110 103 81 77 89 110 132 146 150 143 142 123 107 113 117 113 108 97 98 89 79 74 71 82 78 75 69 64 65 65 68 76 77 77 81 80 73 74 72 77 72 72
97 89 84 100 109 107 105 99 96 87 99 110 121 135 145 143 139 134 122 120 118 120 129 115 106 88 89 80 77 85 83 73 80 69 72 73 71 72 79 81 77 77 81 87 78 77 76 72 67
94 102 102 107 114 116 112 101 96 101 125 127 131 133 133 128 133 137 135 127 117 117 113 117 121 100 92 102 98 81 80 86 69 70 70 71 72 76 80 87 79 72 70 72 79 78 76 72 69
127 122 115 106 114 125 141 105 92 120 141 137 138 131 124 129 139 140 132 129 114 112 116 112 108 105 95 88 84 87 83 80 77 70 55 72 75 75 77 77 80 76 83 84 78 84 80 78 76
161 157 121 103 110 152 225 95 95 140 159 148 141 134 137 143 154 137 135 132 119 127 121 118 128 119 103 95 98 94 81 68 74 79 64 69 80 77 78 78 82 82 84 89 90 86 87 80 73
171 130 102 111 99 161 215 98 117 155 174 167 162 156 154 150 157 146 151 152 141 143 133 127 121 117 113 111 111 87 88 79 75 82 78 73 78 82 90 79 85 95 93 88 91 87 84 86 82
119 108 98 87 98 181 172 100 128 167 189 185 179 173 171 169 166 162 162 155 155 154 142 129 126 129 117 122 123 112 96 92 79 77 77 63 71 77 87 103 97 96 101 99 101 104 98 88 92
93 140 84 67 80 222 51 44 119 165 191 196 189 186 193 184 163 157 165 161 162 161 159 144 151 139 131 124 127 119 115 106 92 76 74 85 88 88 92 98 94 92 99 106 115 116 116 105 103
201 210 113 105 91 276 9 33 85 128 186 207 201 189 187 181 171 161 176 171 173 163 163 155 152 150 136 120 120 109 103 92 84 90 91 88 88 95 104 113 113 112 113 127 123 134 127 114 99
207 286 317 337 182 195 251 133 111 118 129 158 209 206 188 185 188 176 181 172 171 171 169 165 161 152 145 140 135 141 135 151 135 115 96 79 78 86 90 98 116 126 145 136 138 143 151 122 88
228 337 264 238 245 207 287 288 90 95 110 133 194 201 194 189 197 186 185 181 179 174 174 172 160 151 147 152 160 163 174 130 105 108 110 116 106 102 100 109 120 130 123 137 153 130 89 336 52
13 17 230 244 262 253 246 272 87 85 55 58 199 196 195 193 195 191 189 187 181 170 173 174 162 157 156 161 148 185 163 139 137 138 129 129 113 108 111 116 126 121 126 136 120 106 326 342 347
156 185 179 207 235 238 1 284 68 62 355 352 173 179 184 183 184 184 179 179 174 168 169 175 175 164 168 183 182 186 162 163 156 156 142 142 129 125 117 120 125 119 117 126 121 126 146 341 359
217 243 220 204 202 126 75 272 46 39 2 342 317 193 172 166 172 175 178 180 175 174 177 183 184 180 183 192 194 189 183 181 173 170 161 164 144 140 133 143 138 121 119 109 115 131 121 127 93
221 275 296 305 307 91 184 245 78 38 358 346 12 149 150 156 168 178 186 185 177 182 185 190 191 190 190 199 198 199 181 190 161 180 178 177 156 143 137 133 125 122 121 122 121 116 109 96 96
212 234 310 293 281 270 194 149 139 92 63 66 102 124 141 152 166 177 183 186 181 187 191 194 193 192 195 200 199 197 189 188 178 191 188 179 174 151 146 141 140 134 131 123 122 109 101 91 64
321 256 231 253 271 256 228 247 23 68 53 69 123 139 147 153 168 173 176 181 181 186 193 194 196 197 197 202 197 190 196 194 202 211 201 194 180 168 167 168 157 151 143 136 126 122 78 118 100
172 203 239 248 277 287 280 83 61 28 31 46 123 139 155 165 182 184 179 182 181 181 186 193 200 202 200 205 199 191 191 196 198 205 205 203 190 183 183 183 176 163 157 148 144 154 150 148 134
260 256 249 258 243 266 279 64 102 17 58 123 139 152 167 176 185 187 187 187 186 192 194 198 205 205 203 206 204 198 191 197 201 198 199 202 194 192 196 186 187 176 175 168 158 160 165 142 114